Simultaneous Nadir Overpasses (SNOs) Predictions

Prediction of SNOs between GOES-17 and TERRA Satellite Orbit:

Table of predicted SNOs for the next 14.0 days since TLE Epoch: 3/20/2022
Index Date Time (GOES-17) GOES-17 Lat,Lon TERRA Lat,Lon Distance(km) Time Diff (sec)
1 03/21/2022 19:22:35 0.04,-137.20 -0.31,-135.60 182.21 80
2 03/22/2022 07:46:37 -0.05,-137.20 -0.81,-140.79 409.20 80
3 03/24/2022 07:34:22 -0.04,-137.18 -0.16,-137.84 74.48 80
4 03/26/2022 07:19:26 -0.04,-137.16 0.43,-134.87 259.51 80
5 03/26/2022 19:40:41 0.04,-137.16 0.63,-140.04 326.90 80
6 03/28/2022 19:31:05 0.03,-137.13 0.03,-137.07 6.86 80
7 03/30/2022 19:18:49 0.03,-137.11 -0.58,-134.11 340.48 80
8 03/31/2022 07:40:13 -0.03,-137.10 -0.47,-139.31 251.33 80
9 04/02/2022 07:25:17 -0.03,-137.07 0.15,-136.35 82.24 80
